Location: Altavilla Irpina
(41.0000°N, 14.7833°E)
Time: 00:57:04
(UTC+00:00)

Cosmos 2154 Rocket - Pass Details

Date: 19 May 2025
Orbit: 965 x 996 km, 82.9° (Epoch: 22 June)

Event Time Altitude Azimuth Distance (km) Brightness Sun altitude
Rises 19:52:07 0° 349° (N) 3,663 8.0 -15.4°
Reaches altitude 10° 19:54:39 10° 346° (NNW) 2,712 7.2 -15.8°
Maximum altitude 20:00:46 64° 267° (W) 1,063 4.3 -16.6°
Enters shadow 20:06:36 11° 187° (S) 2,603 5.9 -17.3°
